Location: ??????
(56.0120°N, 39.1740°E)
Time: 07:48:08
(UTC+00:00)

Cosmos 371 Rocket - Pass Details

Date: 14 April 2026
Orbit: 674 x 689 km, 74.0° (Epoch: 13 May)

Event Time Altitude Azimuth Distance (km) Brightness Sun altitude
Rises 21:29:01 0° 327° (NNW) 3,067 7.5 -24.3°
Reaches altitude 10° 21:31:29 10° 319° (NW) 2,149 6.4 -24.3°
Enters shadow 21:35:29 34° 264° (W) 1,140 4.3 -24.3°
